Torna al catalogo

GLOBALSTAR M002

AttivoComunicazioniLEO
NORAD 25164·PAYLOAD·🇺🇸 United States

Lanciato Feb 14, 1998 da Cape Canaveral Space Force Station

Loading…

Prossimi Passaggi (prossime 24 ore)

TLE

AggiornatoSource: Space-Track

Epoca: Sep 14, 2026, 04:51 UTC

1 25164U 98008C   26257.20224740 -.00000057  00000-0  37727-3 0  9998
2 25164  52.0002 181.8250 0000915 278.6437  81.4279 11.61517752236824

Traccia GLOBALSTAR M002 in tempo reale con AllMySat

Download on the App Store